Regional Weather Roundup
Issued by NWS

Home | Current Version | Previous Version | Graphics & Text | Print | Product List | Glossary On
Versions: 1 2 3 4 5 6 7 8 9 10 11 12 13 14 15 16 17 18 19 20 21 22 23 24 25 26 27 28 29 30 31 32 33 34 35 36 37 38 39 40 41 42 43 44 45 46 47 48 49 50
000
ASUS43 KMKX 231911
RWRWI

WISCONSIN REGIONAL WEATHER ROUNDUP
NATIONAL WEATHER SERVICE MILWAUKEE/SULLIVAN WI
200 PM CDT SAT AUG 23 2014

NOTE: "FAIR" INDICATES FEW OR NO CLOUDS BELOW 12,000 FEET WITH NO
SIGNIFICANT WEATHER AND/OR OBSTRUCTIONS TO VISIBILITY.

WIZ001-002-006>008-014>016-023>028-232000-
NORTHWEST WISCONSIN

CITY           SKY/WX    TMP DP  RH WIND       PRES   REMARKS
SUPERIOR ARPT  FOG       61  61  98 E14       30.05R VSB 3/4
ASHLAND        CLOUDY    66  63  90 N9        30.06R
HAYWARD        CLOUDY    77  68  73 VRB6      30.01F
SIREN          CLOUDY    75  67  76 E7        29.99F
RICE LAKE      CLOUDY    76  68  77 E8        30.00F
LADYSMITH      CLOUDY    78  70  75 E7        30.02S HX  80
EAU CLAIRE     CLOUDY    79  73  82 E9        29.95F HX  82
MENOMONIE      CLOUDY    76  70  82 NE9       29.96F
NEW RICHMOND   CLOUDY    74  70  87 NE6       29.98F
OSCEOLA        CLOUDY    76  72  87 NE8       30.00F
$$

WIZ003>005-009-010-017-018-232000-
NORTH CENTRAL WISCONSIN

CITY           SKY/WX    TMP DP  RH WIND       PRES   REMARKS
WOODRUFF       CLOUDY    77  71  82 SE6       30.05S
RHINELANDER    CLOUDY    73  68  84 SE7       30.05S
EAGLE RIVER    CLOUDY    72  69  91 E5        30.06S
LAND O LAKES   CLOUDY    73  68  86 E6        30.07S
PHILLIPS       CLOUDY    73  69  87 E6        30.03S
TOMAHAWK       CLOUDY    71  68  89 E5        30.04S FOG
MEDFORD        CLOUDY    72  70  92 E6        30.02S FOG
MERRILL        CLOUDY    72  71  94 E7        30.03S FOG
$$

WIZ029-030-035-036-043>047-232000-
CENTRAL WISCONSIN

CITY           SKY/WX    TMP DP  RH WIND       PRES   REMARKS
WAUSAU         CLOUDY    73  69  87 E10       30.01S FOG
MOSINEE        CLOUDY    72  72 100 E8        30.03S FOG
MARSHFIELD     CLOUDY    74  71  91 SE8       30.00F FOG
STEVENS POINT  FOG       69  69  98 E7        30.02F VSB 1
WAUPACA        CLOUDY    76  74  93 SE3       30.02R FOG
WAUTOMA        CLOUDY    76  74  93 E8        30.01S FOG
WISC RAPIDS    CLOUDY    73  71  93 E9        30.02R FOG
CAMP DOUGLAS   CLOUDY    77  77 100 E5        29.97F FOG
$$

WIZ011>013-019>022-031-037>040-048>050-232000-
NORTHEAST WISCONSIN

CITY           SKY/WX    TMP DP  RH WIND       PRES   REMARKS
ANTIGO         CLOUDY    71  69  96 SE12      30.05S FOG
STURGEON BAY   PTSUNNY   73  66  78 SE8       30.05S
GREEN BAY      LGT RAIN  75  73  93 SE5       30.03R
MANITOWOC      CLOUDY    74  68  81 SE12      30.04S
APPLETON       CLOUDY    77  72  83 SE10      30.03S
CLINTONVILLE   CLOUDY    77  72  83 SE8       30.01S
OSHKOSH        CLOUDY    78  73  84 SE13      30.01S HX  81
$$

WIZ032>034-041-042-053>061-232000-
SOUTHWEST WISCONSIN

CITY           SKY/WX    TMP DP  RH WIND       PRES   REMARKS
LA CROSSE      LGT RAIN  75  71  87 E8        29.92F
SPARTA         CLOUDY    74  71  89 SE5       29.97S
VIROQUA        FAIR      73  73 100 NE5       29.96F
BOSCOBEL       LGT RAIN  78  73  84 NE6       29.92F HX  81
PRAIRIE DU CHI CLOUDY    74  72  93 E6        29.92F
PLATTEVILLE    FAIR      75  74  96 E6        29.93F
$$

WIZ056-057-062-063-064-067-068-232000-
SOUTH CENTRAL WISCONSIN

CITY           SKY/WX    TMP DP  RH WIND       PRES   REMARKS
BARABOO/DELLS  CLOUDY    77  72  84 E8        29.98F HAZE
LONE ROCK      LGT RAIN  80  74  81 E6        29.93F HX  85
WATERTOWN      CLOUDY    76  74  92 E6        30.00F
MADISON        LGT RAIN  77  73  87 E10       29.98F FOG
MIDDLETON      CLOUDY    77  77  99 E9        29.97F
MONROE         CLOUDY    70  70 100 CALM      29.96S
JANESVILLE     LGT RAIN  72  70  94 NE3       29.96F
$$

WIZ051-052-058>065-066-070>072-232000-
SOUTHEAST WISCONSIN

CITY           SKY/WX    TMP DP  RH WIND       PRES   REMARKS
MILWAUKEE      CLOUDY    73  70  90 VRB3      30.04R FOG
WAUKESHA       CLOUDY    75  72  88 SE8       30.05R FOG
MILWAUKEE/TIMM NOT AVBL
RACINE         CLOUDY    74  71  91 E6        30.05S FOG
BURLINGTON     CLOUDY    75  73  91 S3        30.03F
KENOSHA        CLOUDY    76  73  91 E5        30.04R FOG
FOND DU LAC    CLOUDY    78  71  79 SE12      30.02R HX  80
SHEBOYGAN      CLOUDY    73  68  84 S8        30.04R
WEST BEND      CLOUDY    73  68  83 E8        30.04R
JUNEAU         CLOUDY    76  46  33 SE8       30.03S HAZE
$$

LSZ147-162-232000-
LAKE SUPERIOR

STATION/POSITION TIME  TEMP    WIND        PRES    WAVE
                       AIR SEA DIR/SP/G            HT/PER
                 (UTC) (F)     (DEG/KT/KT) (MB)    (FT/S)
W MID LAKE BUOY  1850   59 59   40/ 12/ 14 1017.7R   2/ 4
DEVILS ISLAND    1900   60      80/ 10/ 12 1018.1R
PORT WING        1800   62      30/ 14/ 16 1017.3
SAXON HARBOR     1800   63      20/  4/  5 1017.6F
$$

LMZ867-665-643>646-232000-
LAKE MICHIGAN

STATION/POSITION TIME  TEMP    WIND        PRES    WAVE
                       AIR SEA DIR/SP/G            HT/PER
                 (UTC) (F)     (DEG/KT/KT) (MB)    (FT/S)
N MID LAKE BUOY  1850   68 66   80/  8/ 10 1017.6F   1
NORTHPORT PIER   1800   69      80/  5/  6 1018.3S
SISTER BAY       1811   76     120/ 10/ 15   N/A
KEWAUNEE LAKESHO 1800   69      90/  3/  4 1016.5F
SHEBOYGAN LAKESH 1900   69 66  180/  6/  7 1017.2R
ATWATER BUOY     1800   71     130/  6/  8 1018.0S
MILWAUKEE LAKESH 1800   70     130/  6/  7   N/A
S MID LAKE BUOY  1850   70 70  110/  2/  2 1017.0R   1
KENOSHA   LAKESH 1900   72     130/  4/  5 1016.6R
$$

TC  - TEMPERATURE IN CELSIUS
VSB - VISIBILITY IN STATUTE MILES
WCI - WIND CHILL INDEX
HX  - HEAT INDEX




USA.gov is the U.S. government's official web portal to all federal, state and local government web resources and services.